Ironwood, MI

7:58 AM CST on February 21, 2018 (GMT -0600)
Gogebic-Iron County

Weather History for KIWD - April, 2014

Change the Weather History Date:

Thursday, April 10, 2014

  Actual Average Record
Temperature  
Mean Temperature 44 °F -  
Max Temperature 53 °F 45 °F 75 °F (2005)
Min Temperature 35 °F 27 °F 8 °F (2007)
Degree Days  
Heating Degree Days 21    
Moisture  
Dew Point 26 °F    
Average Humidity 47    
Maximum Humidity 70    
Minimum Humidity 30    
Precipitation  
Precipitation 0.00 in - - ()
Sea Level Pressure  
Sea Level Pressure 29.61 in    
Wind  
Wind Speed 13 mph (West)    
Max Wind Speed 26 mph    
Max Gust Speed 34 mph    
Visibility 10 miles    
Events      
Averages and records for this station are not official NWS values.
T = Trace of Precipitation, MM = Missing Value Source: NWS Daily Summary

Daily Weather History Graph

Daily Weather History Graph

Search for Another Location

Airport or City:

Trip Planner

Search our weather history database for the weather conditions in past years. The results will help you decide how hot, cold, wet, or windy it might be!

Date:

Astronomy

Apr. 10, 2014 Rise Set
Actual Time 6:22 AM CDT 7:41 PM CDT
Civil Twilight 5:51 AM CDT 8:12 PM CDT
Nautical Twilight 5:14 AM CDT 8:50 PM CDT
Astronomical Twilight 4:33 AM CDT 9:31 PM CDT
Moon 3:11 PM CDT (4/10) 4:01 AM CDT (4/10)
Length of Visible Light 14h 21m
Length of Day
13h 18m
Waxing Gibbous, 80% of the Moon is Illuminated
Apr 10
Waxing Gibbous
Apr 15
Full
Apr 22
Last Quarter
Apr 29
New
May 6
First Quarter

Hourly Weather History & Observations

Time (CDT) Temp. Windchill Dew Point Humidity Pressure Visibility Wind Dir Wind Speed Gust Speed Precip Events Conditions
12:15 AM 53.6 °F - 32.0 °F 44% 29.39 in 10.0 mi West 3.5 mph 21.9 mph N/A   Mostly Cloudy
12:35 AM 53.6 °F - 33.8 °F 47% 29.40 in 10.0 mi West 8.1 mph - N/A   Mostly Cloudy
12:55 AM 53.6 °F - 33.8 °F 47% 29.39 in 10.0 mi SW 6.9 mph - N/A   Scattered Clouds
1:15 AM 51.8 °F - 33.8 °F 50% 29.39 in 10.0 mi West 4.6 mph - N/A   Mostly Cloudy
1:35 AM 51.8 °F - 33.8 °F 50% 29.39 in 10.0 mi WSW 8.1 mph - N/A   Overcast
1:55 AM 48.2 °F - 33.8 °F 58% 29.39 in 10.0 mi WSW 9.2 mph - N/A   Overcast
2:15 AM 50.0 °F - 33.8 °F 54% 29.42 in 10.0 mi West 18.4 mph - N/A   Overcast
2:35 AM 51.8 °F - 37.4 °F 58% 29.45 in 10.0 mi West 18.4 mph 27.6 mph N/A   Overcast
2:55 AM 48.2 °F - 37.4 °F 66% 29.47 in 10.0 mi WNW 15.0 mph 27.6 mph N/A   Overcast
3:15 AM 46.4 °F 39.5 °F 35.6 °F 66% 29.49 in 10.0 mi West 17.3 mph 26.5 mph N/A   Overcast
3:35 AM 44.6 °F 38.4 °F 33.8 °F 66% 29.50 in 10.0 mi WNW 12.7 mph 21.9 mph N/A   Overcast
3:55 AM 44.6 °F 38.8 °F 33.8 °F 66% 29.50 in 10.0 mi West 11.5 mph 17.3 mph N/A   Scattered Clouds
4:15 AM 44.6 °F 38.8 °F 32.0 °F 61% 29.51 in 10.0 mi West 11.5 mph - N/A   Mostly Cloudy
4:35 AM 42.8 °F 36.6 °F 33.8 °F 70% 29.51 in 10.0 mi WSW 11.5 mph - N/A   Mostly Cloudy
4:55 AM 42.8 °F 36.6 °F 32.0 °F 66% 29.51 in 10.0 mi WSW 11.5 mph - N/A   Mostly Cloudy
5:15 AM 42.8 °F 36.2 °F 32.0 °F 66% 29.51 in 10.0 mi West 12.7 mph - N/A   Scattered Clouds
5:35 AM 42.8 °F 35.1 °F 32.0 °F 66% 29.52 in 10.0 mi West 16.1 mph - N/A   Clear
5:55 AM 42.8 °F 35.4 °F 30.2 °F 61% 29.52 in 10.0 mi West 15.0 mph - N/A   Clear
6:15 AM 42.8 °F 35.8 °F 32.0 °F 66% 29.53 in 10.0 mi West 13.8 mph - N/A   Clear
6:55 AM 41.0 °F 33.5 °F 30.2 °F 65% 29.54 in 10.0 mi WSW 13.8 mph - N/A   Clear
7:15 AM 41.0 °F 34.3 °F 28.4 °F 61% 29.55 in 10.0 mi WSW 11.5 mph - N/A   Clear
7:35 AM 42.8 °F 35.8 °F 28.4 °F 57% 29.55 in 10.0 mi WSW 13.8 mph - N/A   Clear
7:55 AM 42.8 °F 35.8 °F 28.4 °F 57% 29.55 in 10.0 mi West 13.8 mph - N/A   Clear
8:15 AM 42.8 °F 35.1 °F 26.6 °F 53% 29.55 in 10.0 mi West 16.1 mph - N/A   Clear
8:35 AM 42.8 °F 35.1 °F 26.6 °F 53% 29.54 in 10.0 mi West 16.1 mph - N/A   Clear
8:55 AM 42.8 °F 34.8 °F 26.6 °F 53% 29.54 in 10.0 mi West 17.3 mph 23.0 mph N/A   Clear
9:15 AM 44.6 °F 37.4 °F 26.6 °F 49% 29.54 in 10.0 mi West 16.1 mph 21.9 mph N/A   Clear
9:35 AM 44.6 °F 37.2 °F 26.6 °F 49% 29.53 in 10.0 mi West 17.3 mph 25.3 mph N/A   Clear
9:55 AM 46.4 °F 39.0 °F 24.8 °F 43% 29.53 in 10.0 mi West 19.6 mph 25.3 mph N/A   Clear
10:15 AM 46.4 °F 38.1 °F 24.8 °F 43% 29.53 in 10.0 mi West 24.2 mph 31.1 mph N/A   Clear
10:35 AM 46.4 °F 38.7 °F 24.8 °F 43% 29.54 in 10.0 mi West 20.7 mph 29.9 mph N/A   Clear
10:55 AM 46.4 °F 38.1 °F 24.8 °F 43% 29.54 in 10.0 mi West 24.2 mph 32.2 mph N/A   Clear
11:15 AM 48.2 °F - 23.0 °F 37% 29.55 in 10.0 mi West 26.5 mph 31.1 mph N/A   Clear
11:35 AM 46.4 °F 37.9 °F 24.8 °F 43% 29.56 in 10.0 mi West 25.3 mph 28.8 mph N/A   Clear
11:55 AM 46.4 °F 38.7 °F 24.8 °F 43% 29.57 in 10.0 mi West 20.7 mph 28.8 mph N/A   Clear
12:15 PM 46.4 °F 38.7 °F 24.8 °F 43% 29.58 in 10.0 mi West 20.7 mph 33.4 mph N/A   Clear
12:35 PM 46.4 °F 37.9 °F 24.8 °F 43% 29.59 in 10.0 mi West 25.3 mph 29.9 mph N/A   Clear
12:55 PM 46.4 °F 38.3 °F 24.8 °F 43% 29.59 in 10.0 mi West 23.0 mph 32.2 mph N/A   Clear
1:15 PM 48.2 °F - 24.8 °F 40% 29.60 in 10.0 mi West 25.3 mph 33.4 mph N/A   Clear
1:35 PM 48.2 °F - 24.8 °F 40% 29.60 in 10.0 mi West 24.2 mph 32.2 mph N/A   Clear
1:55 PM 48.2 °F - 24.8 °F 40% 29.62 in 10.0 mi West 26.5 mph 33.4 mph N/A   Clear
2:15 PM - - - N/A% 29.62 in 10.0 mi West 23.0 mph 33.4 mph N/A   Clear
2:35 PM 48.2 °F - 24.8 °F 40% 29.63 in 10.0 mi West 26.5 mph 34.5 mph N/A   Clear
2:55 PM 46.4 °F 38.3 °F 24.8 °F 43% 29.63 in 10.0 mi West 23.0 mph 34.5 mph N/A   Clear
3:15 PM 48.2 °F - 24.8 °F 40% 29.64 in 10.0 mi West 23.0 mph 32.2 mph N/A   Clear
3:35 PM 48.2 °F - 24.8 °F 40% 29.65 in 10.0 mi West 21.9 mph 34.5 mph N/A   Clear
3:55 PM 48.2 °F - 21.2 °F 34% 29.65 in 10.0 mi WNW 19.6 mph 31.1 mph N/A   Clear
4:15 PM 48.2 °F - 21.2 °F 34% 29.66 in 10.0 mi WNW 19.6 mph 31.1 mph N/A   Clear
4:35 PM 50.0 °F - 19.4 °F 30% 29.67 in 10.0 mi West 23.0 mph 34.5 mph N/A   Clear
4:55 PM 50.0 °F - 21.2 °F 32% 29.67 in 10.0 mi West 23.0 mph 32.2 mph N/A   Clear
5:15 PM 48.2 °F - 19.4 °F 32% 29.69 in 10.0 mi West 23.0 mph 32.2 mph N/A   Clear
5:35 PM 50.0 °F - 19.4 °F 30% 29.70 in 10.0 mi WNW 21.9 mph 31.1 mph N/A   Clear
5:55 PM 50.0 °F - 19.4 °F 30% 29.71 in 10.0 mi WNW 19.6 mph 26.5 mph N/A   Clear
6:15 PM 50.0 °F - 19.4 °F 30% 29.72 in 10.0 mi WNW 17.3 mph 27.6 mph N/A   Clear
6:35 PM 48.2 °F - 19.4 °F 32% 29.73 in 10.0 mi WNW 15.0 mph 24.2 mph N/A   Clear
6:55 PM 48.2 °F - 19.4 °F 32% 29.75 in 10.0 mi West 13.8 mph 20.7 mph N/A   Clear
7:15 PM 48.2 °F - 19.4 °F 32% 29.75 in 10.0 mi WNW 16.1 mph 20.7 mph N/A   Clear
7:35 PM 46.4 °F 41.5 °F 19.4 °F 34% 29.76 in 10.0 mi West 10.4 mph 18.4 mph N/A   Clear
7:55 PM 46.4 °F 41.9 °F 19.4 °F 34% 29.76 in 10.0 mi West 9.2 mph - N/A   Clear
8:15 PM 44.6 °F 40.2 °F 19.4 °F 37% 29.77 in 10.0 mi West 8.1 mph - N/A   Clear
8:35 PM 42.8 °F 38.6 °F 21.2 °F 42% 29.79 in 10.0 mi West 6.9 mph - N/A   Clear
8:55 PM 42.8 °F 38.6 °F 19.4 °F 39% 29.79 in 10.0 mi West 6.9 mph - N/A   Clear
9:15 PM 42.8 °F 40.1 °F 19.4 °F 39% 29.81 in 10.0 mi WSW 4.6 mph - N/A   Clear
9:35 PM 39.2 °F 35.0 °F 21.2 °F 49% 29.81 in 10.0 mi WSW 5.8 mph - N/A   Clear
9:55 PM 39.2 °F 35.9 °F 19.4 °F 45% 29.82 in 10.0 mi SW 4.6 mph - N/A   Scattered Clouds
10:15 PM 39.2 °F 35.9 °F 19.4 °F 45% 29.82 in 10.0 mi SW 4.6 mph - N/A   Scattered Clouds
10:35 PM 35.6 °F 31.7 °F 21.2 °F 56% 29.83 in 10.0 mi WSW 4.6 mph - N/A   Clear
10:55 PM 39.2 °F 35.0 °F 21.2 °F 49% 29.83 in 10.0 mi SW 5.8 mph - N/A   Mostly Cloudy
11:15 PM 35.6 °F 32.8 °F 21.2 °F 56% 29.83 in 10.0 mi SW 3.5 mph - N/A   Overcast
11:35 PM 37.4 °F 34.9 °F 21.2 °F 52% 29.83 in 10.0 mi SW 3.5 mph - N/A   Scattered Clouds
11:55 PM 37.4 °F 32.8 °F 19.4 °F 48% 29.84 in 10.0 mi WSW 5.8 mph - N/A   Mostly Cloudy